Location: Brompton
(51.4000°N, 0.5333°E)
Time: 18:32:56
(UTC+00:00)

Cosmos 2074 Rocket - Pass Details

Date: 11 May 2021
Orbit: 967 x 986 km, 82.9° (Epoch: 21 June)

Event Time Altitude Azimuth Distance (km) Brightness Sun altitude
Rises 21:08:08 0° 350° (N) 3,707 8.2 -11.6°
Reaches altitude 10° 21:10:41 10° 353° (N) 2,755 7.3 -11.8°
Maximum altitude 21:17:01 74° 78° (ENE) 1,030 4.1 -12.5°
Enters shadow 21:22:15 15° 162° (SSE) 2,358 5.4 -13.0°
